This demonstration page uses our WeatherBlox Daily Observations layout. Learn more.

Left ArrowRight Arrow

40.92945, -100.16068

Hourly Observations for April 23, 2016

Temp ( °F °C ) Dew Point ( °F °C ) Humidity (%) Winds ( mph kmh ) Pressure ( in mb ) Visibility ( mi km ) Precip ( " mm )
12:15 am 00:15 Clear 54 12.4 42 5.6 63 63 SE 9 15 30.00 1016 10 16 N/A
12:35 am 00:35 Clear 53 11.5 42 5.8 68 68 SE 9 15 30.00 1016 10 16 N/A
12:55 am 00:55 Clear 52 11.2 42 5.8 70 70 SE 9 15 30.00 1016 10 16 N/A
1:15 am 01:15 Clear 52 11.1 42 5.5 69 69 SE 9 15 30.00 1016 10 16 N/A
1:35 am 01:35 Clear 53 11.6 41 5.2 65 65 SE 9 15 30.00 1016 10 16 N/A
1:55 am 01:55 Clear 52 11.3 41 5.2 66 66 SSE 14 22 30.00 1016 10 16 N/A
2:15 am 02:15 Clear 53 11.8 42 5.3 65 65 SSE 15 24 29.97 1015 10 16 N/A
2:35 am 02:35 Clear 53 11.9 42 5.5 65 65 SSE 16 26 29.97 1015 10 16 N/A
2:55 am 02:55 Clear 54 12.1 42 5.5 64 64 SSE 16 26 29.97 1015 10 16 N/A
3:15 am 03:15 Clear 53 11.7 42 5.6 66 66 SSE 15 24 29.97 1015 10 16 N/A
3:35 am 03:35 Clear 54 12 42 5.7 66 66 SE 14 22 29.97 1015 10 16 N/A
3:55 am 03:55 Clear 54 12 42 5.7 66 66 SE 15 24 29.94 1014 10 16 N/A
4:15 am 04:15 Clear 53 11.8 43 6 68 68 SSE 14 22 29.94 1014 10 16 N/A
4:35 am 04:35 Clear 53 11.5 43 6.2 70 70 SSE 15 24 29.94 1014 10 16 N/A
4:55 am 04:55 Clear 53 11.5 43 6.3 71 71 SSE 15 24 29.91 1013 10 16 N/A
5:15 am 05:15 Clear 53 11.5 44 6.5 72 72 SSE 15 24 29.91 1013 10 16 N/A
5:35 am 05:35 Clear 52 11.2 44 6.6 74 74 SSE 14 22 29.91 1013 10 16 N/A
5:55 am 05:55 Clear 52 10.9 44 6.6 75 75 SSE 15 24 29.91 1013 10 16 N/A
6:15 am 06:15 Clear 51 10.7 44 6.8 77 77 SSE 14 22 29.91 1013 10 16 N/A
6:35 am 06:35 Clear 51 10.7 44 6.9 78 78 SSE 15 24 29.91 1013 10 16 N/A
6:55 am 06:55 Sunny 52 10.9 45 7 77 77 SSE 16 26 29.88 1012 10 16 N/A
7:15 am 07:15 Sunny 52 11.1 45 7.1 77 77 SSE 18 30 29.88 1012 10 16 N/A
7:35 am 07:35 Sunny 53 11.5 45 7.3 76 76 SSE 20 31 29.88 1012 10 16 N/A
7:55 am 07:55 Sunny 53 11.8 46 7.6 76 76 SSE 18 30 29.88 1012 10 16 N/A
8:15 am 08:15 Sunny 54 12.2 46 7.7 74 74 SSE 16 26 29.85 1011 10 16 N/A
8:35 am 08:35 Sunny 55 12.5 46 8 74 74 SSE 17 28 29.83 1010 10 16 N/A
8:55 am 08:55 Sunny 56 13.5 47 8.2 71 71 SSE 14 22 29.83 1010 10 16 N/A
9:15 am 09:15 Sunny 58 14.4 47 8.6 68 68 SSE 16 26 29.83 1010 10 16 N/A
9:35 am 09:35 Sunny 60 15.6 49 9.3 66 66 S 17 28 29.80 1009 10 16 N/A
9:55 am 09:55 Sunny 61 16.1 49 9.3 64 64 S 17 28 29.77 1008 10 16 N/A
10:15 am 10:15 Sunny 62 16.9 49 9.6 62 62 S 23 37 29.77 1008 10 16 N/A
10:35 am 10:35 Sunny 63 17.4 50 9.8 61 61 S 17 28 29.77 1008 10 16 N/A
10:55 am 10:55 Sunny 64 18 50 10.1 60 60 S 16 26 29.77 1008 10 16 N/A
11:15 am 11:15 Sunny 66 18.8 51 10.6 59 59 SSE 17 28 29.74 1007 10 16 N/A
11:35 am 11:35 Sunny 67 19.4 51 10.6 57 57 S 20 31 29.71 1006 10 16 N/A
11:55 am 11:55 Sunny 68 20.2 52 11.2 56 56 SSE 21 33 29.71 1006 10 16 N/A
12:15 pm 12:15 Sunny 71 21.4 52 11.1 52 52 SSE 23 37 29.65 1004 10 16 N/A
12:35 pm 12:35 Sunny 72 22.3 52 11.1 49 49 S 24 39 29.65 1004 10 16 N/A
12:55 pm 12:55 Sunny 73 22.9 52 11 47 47 SSE 22 35 29.65 1004 10 16 N/A
1:15 pm 13:15 Sunny 74 23.6 52 11.2 46 46 SSE 25 41 29.62 1003 10 16 N/A
1:35 pm 13:35 Sunny 76 24.5 53 11.5 44 44 SSE 26 43 29.59 1002 10 16 N/A
1:55 pm 13:55 Sunny 77 24.9 53 11.6 43 43 S 22 35 29.59 1002 10 16 N/A
2:15 pm 14:15 Sunny 78 25.4 52 11.1 41 41 S 24 39 29.59 1002 10 16 N/A
2:35 pm 14:35 Sunny 78 25.3 52 11 41 41 S 30 48 29.56 1001 10 16 N/A
2:55 pm 14:55 Sunny 78 25.5 52 11.1 41 41 S 28 44 29.56 1001 10 16 N/A
3:15 pm 15:15 Sunny 79 26 52 11.2 40 40 S 29 46 29.56 1001 10 16 N/A
3:35 pm 15:35 Sunny 79 25.9 52 11.1 40 40 S 31 50 29.56 1001 10 16 N/A
3:55 pm 15:55 Sunny 78 25.8 52 11.3 40 40 S 35 56 29.56 1001 10 16 N/A
4:15 pm 16:15 Sunny 78 25.7 51 10.5 38 38 S 32 52 29.56 1001 10 16 N/A
4:35 pm 16:35 Sunny 78 25.8 52 11.2 40 40 S 28 44 29.53 1000 10 16 N/A
4:55 pm 16:55 Sunny 79 26 52 11.1 39 39 S 31 50 29.53 1000 10 16 N/A
5:15 pm 17:15 Sunny 78 25.6 51 10.8 40 40 S 31 50 29.53 1000 10 16 N/A
5:35 pm 17:35 Sunny 78 25.5 52 10.9 40 40 S 29 46 29.53 1000 10 16 N/A
5:55 pm 17:55 Sunny 77 25.2 52 11.1 41 41 S 25 41 29.53 1000 10 16 N/A
6:15 pm 18:15 Sunny 77 25.1 52 10.9 41 41 S 22 35 29.53 1000 10 16 N/A
6:35 pm 18:35 Sunny 77 25 51 10.5 40 40 S 20 31 29.53 1000 10 16 N/A
6:55 pm 18:55 Sunny 76 24.6 51 10.3 41 41 S 25 41 29.50 999 10 16 N/A
7:15 pm 19:15 Sunny 75 24 52 11.2 45 45 SSE 21 33 29.50 999 10 16 N/A
7:35 pm 19:35 Sunny 74 23.2 52 11.2 47 47 SSE 20 31 29.50 999 10 16 N/A
7:55 pm 19:55 Sunny 73 22.8 53 11.4 49 49 SSE 20 31 29.53 1000 10 16 N/A
8:15 pm 20:15 Sunny 72 22.3 53 11.5 51 51 SSE 18 30 29.53 1000 10 16 N/A
8:35 pm 20:35 Clear 72 22 53 11.5 51 51 SSE 18 30 29.53 1000 10 16 N/A
8:55 pm 20:55 Clear 71 21.7 53 11.5 52 52 SSE 23 37 29.53 1000 10 16 N/A
9:15 pm 21:15 Clear 71 21.4 53 11.5 53 53 SSE 22 35 29.53 1000 10 16 N/A
9:35 pm 21:35 Clear 70 21.1 53 11.6 55 55 SSE 22 35 29.53 1000 10 16 N/A
9:55 pm 21:55 Clear 70 21 53 11.6 55 55 SSE 22 35 29.53 1000 10 16 N/A
10:15 pm 22:15 Clear 69 20.6 53 11.5 56 56 SSE 22 35 29.53 1000 10 16 N/A
10:35 pm 22:35 Clear 68 20.2 53 11.5 58 58 SSE 23 37 29.53 1000 10 16 N/A
10:55 pm 22:55 Clear 68 20 52 11.2 57 57 S 24 39 29.53 1000 10 16 N/A
11:15 pm 23:15 Clear 67 19.6 52 11 58 58 S 23 37 29.56 1001 10 16 N/A
11:35 pm 23:35 Clear 67 19.3 52 10.9 58 58 S 24 39 29.53 1000 10 16 N/A
11:55 pm 23:55 Clear 66 19.1 51 10.7 58 58 S 25 41 29.53 1000 10 16 N/A

Powered by AerisWeather